Regional Weather Roundup
Issued by NWS Midland/Odessa, TX

Skip options and go directly to product.
Home | Oldest Version | Next Version | Current Version | All | Text Only | Save Text | Print | Product List | Glossary On

Skip product version selection by date and time.   
252
ASUS44 KMAF 030901
RWRMAF
MIDLAND AREA WEATHER ROUNDUP
NATIONAL WEATHER SERVICE MIDLAND TX
400 AM CDT FRI JUL 03 2015

...IN SOUTHWEST TEXAS AND SOUTHEAST NEW MEXICO...

CITY           SKY/WX    TMP DP  RH WIND       PRES   REMARKS
ALPINE         PTCLDY    63  58  83 SW5       30.11F
ANDREWS        FAIR      70  63  79 S3        30.02F
ARTESIA        CLOUDY    75  63  64 CALM      30.05S
BIG SPRING     CLOUDY    78  66  66 S10       30.02S
CARLSBAD       CLOUDY    76  63  64 SE8       30.01F
DRYDEN           N/A     75  67  76 VRB6      29.94S
FORT STOCKTON  PTCLDY    71  64  78 SE9       29.99S
GUAD PASS      CLOUDY    68  59  73 NE17      30.15S
HOBBS          MOCLDY    70  63  78 CALM      30.06F
MARFA          PTCLDY   N/A N/A N/A S3        30.11R
MIDLAND AIRPK  MOCLDY    76  64  67 SE7       30.01F
MIDLAND INTL   MOCLDY    72  65  78 SE7       30.00F
ODESSA         MOCLDY    73  63  70 SE8       30.01F
PECOS          PTCLDY    73  62  67 E9        29.96F
PRESIDIO       NOT AVBL
SEMINOLE       MOCLDY    69  61  75 CALM      30.05S
SNYDER         CLOUDY    72  67  82 SW3       30.00F
WINK           CLOUDY    75  63  66 E8        29.97F
$$
...OTHER STATIONS IN TEXAS...

CITY           SKY/WX    TMP DP  RH WIND       PRES   REMARKS
ABILENE        CLOUDY    76  67  73 S12       29.98F
AMARILLO       CLOUDY    66  63  90 SW5       30.05F
AUSTIN         MOCLDY    75  75 100 S5        30.00S
BROWNSVILLE    CLEAR     75  73  93 E5        29.93F
CORPUS CHRISTI PTCLDY    78  76  93 SE7       29.96S
DALLAS FTW     CLOUDY    81  71  71 SW14      29.93R
DEL RIO        CLEAR     76  70  82 SE10      29.92F
EL PASO        LGT RAIN  83  53  35 E7        30.03R
HOUSTON INT    MOCLDY    76  75  97 CALM      30.00F
LUBBOCK        MOCLDY    73  63  70 SW9       30.03F
SAN ANGELO     PTCLDY    74  66  76 S10       29.97F
SAN ANTONIO    CLOUDY    78  73  84 S10       30.00S
WACO           MOCLDY    77  73  87 S13       29.98R
WICHITA FALLS  NOT AVBL
$$
...OTHER LOCATIONS IN NEW MEXICO...

CITY           SKY/WX    TMP DP  RH WIND       PRES   REMARKS
ALAMAGORDO     MOCLDY    75  57  53 S6        30.06R
ALBUQUERQUE    CLOUDY    69  59  70 N5        30.16F
CANNON AFB     CLOUDY    72  63  74 NW8       30.08F
CLOVIS         CLOUDY    70  63  78 CALM        N/A
HOLLOMAN AFB   CLOUDY    73  63  70 VRB2      30.03S
ROSWELL        CLOUDY    73  63  70 CALM      30.04S
RUIDOSO        CLOUDY    59  57  94 W3        30.27S
SANTA FE       MOCLDY    60  57  89 N7        30.23F
TRUTH OR CONSE LGT RAIN  68  64  87 SW3       30.12F
TUCUMCARI      LGT RAIN  67  64  90 W12       30.10S
$$

USA.gov is the U.S. government's official web portal to all federal, state and local government web resources and services.